STARLINK-1716 (46672 NORAD) Tracking and Keplerian Element Data

This shows tracking and keplerian element data for the satellite.

Feedback or suggestion? Click here.




ElementValue
Catalog46672
NameSTARLINK-1716
Epoch Orbit178
Epoch Day330.91667824
Epoch Year2020
RAAN280.3534
Inclination53.0556
Eccentricity8.88E-05
Argument of Perigee81.9976
Mean Anonmoly57.3588
Mean Motion15.62764208
Decay Rate0.00015383
L11 46672U 20073C 20330.91667824 .00015383 00000-0 17344-3 0 9990
L22 46672 53.0556 280.3534 0000888 81.9976 57.3588 15.62764208 1783

Live tracking and technical data element details for STARLINK-1716 (NORAD 46672). STARLINK-1716 can be tracked NOW for your location showing map with azimuth and elevation plus other details from your city location.

Track the satellite on the map from your city or location and see movement details for azimuth, elevation, latitude, longitude, range, height, and movement on the map or in text.







IsCatalogInMostPopularTable: catalog: 46672, numindb: 7
Update: records affected: 1



GetName: 46672 STARLINK-1716

Hit Count: updated at: Thu, 26 Nov 2020 23:41:59 GMT